Вернуться в каталог

STARLINK-30857

АктивенСвязьVLEO
NORAD 58595·PAYLOAD·🇺🇸 United States

Запущен Dec 19, 2023 с Cape Canaveral Space Force Station

Loading…

Ближайшие Пролёты (ближайшие 24 часа)

TLE

СвежийSource: CelesTrak SupGP

Эпоха: Sep 14, 2026, 22:15 UTC

1 58595C 23200G   26257.92756944 -.00007166  00000+0 -25957-3 0  2576
2 58595  42.9996 180.1386 0001427 256.1798  56.7825 15.27578492    16

Отслеживайте STARLINK-30857 в реальном времени с AllMySat

Download on the App Store